Year,Month,Day,Hour,Minute,Value (Times are PST for temperature in C)
2021,05,05,00,00,8.20
2021,05,05,00,01,8.20
2021,05,05,00,02,8.20
2021,05,05,00,03,8.20
2021,05,05,00,04,8.20
2021,05,05,00,05,8.20
2021,05,05,00,06,8.20
2021,05,05,00,07,8.20
2021,05,05,00,08,8.20
2021,05,05,00,09,8.20
2021,05,05,00,10,8.20
2021,05,05,00,11,8.20
2021,05,05,00,12,8.20
2021,05,05,00,13,8.20
2021,05,05,00,14,8.20
2021,05,05,00,15,8.20
2021,05,05,00,16,8.20
2021,05,05,00,17,8.20
2021,05,05,00,18,8.30
2021,05,05,00,19,8.30
2021,05,05,00,20,8.20
2021,05,05,00,21,8.20
2021,05,05,00,22,8.20
2021,05,05,00,23,8.10
2021,05,05,00,24,8.10
2021,05,05,00,25,8.10
2021,05,05,00,26,8.00
2021,05,05,00,27,8.00
2021,05,05,00,28,8.00
2021,05,05,00,29,8.00
2021,05,05,00,30,8.00
2021,05,05,00,31,8.00
2021,05,05,00,32,8.00
2021,05,05,00,33,8.00
2021,05,05,00,34,8.00
2021,05,05,00,35,8.00
2021,05,05,00,36,8.00
2021,05,05,00,37,8.00
2021,05,05,00,38,8.00
2021,05,05,00,39,8.00
2021,05,05,00,40,7.90
2021,05,05,00,41,7.90
2021,05,05,00,42,7.90
2021,05,05,00,43,7.90
2021,05,05,00,44,7.90
2021,05,05,00,45,7.90
2021,05,05,00,46,7.90
2021,05,05,00,47,7.90
2021,05,05,00,48,7.90
2021,05,05,00,49,7.90
2021,05,05,00,50,7.90
2021,05,05,00,51,7.80
2021,05,05,00,52,7.80
2021,05,05,00,53,7.80
2021,05,05,00,54,7.80
2021,05,05,00,55,7.90
2021,05,05,00,56,7.90
2021,05,05,00,57,7.90
2021,05,05,00,58,8.00
2021,05,05,00,59,8.00
2021,05,05,01,00,8.00
2021,05,05,01,01,8.00
2021,05,05,01,02,8.00
2021,05,05,01,03,8.00
2021,05,05,01,04,8.00
2021,05,05,01,05,8.10
2021,05,05,01,06,8.10
2021,05,05,01,07,8.10
2021,05,05,01,08,8.10
2021,05,05,01,09,8.10
2021,05,05,01,10,8.10
2021,05,05,01,11,8.10
2021,05,05,01,12,8.10
2021,05,05,01,13,8.10
2021,05,05,01,14,8.10
2021,05,05,01,15,8.10
2021,05,05,01,16,8.20
2021,05,05,01,17,8.20
2021,05,05,01,18,8.20
2021,05,05,01,19,8.20
2021,05,05,01,20,8.20
2021,05,05,01,21,8.20
2021,05,05,01,22,8.20
2021,05,05,01,23,8.20
2021,05,05,01,24,8.20
2021,05,05,01,25,8.20
2021,05,05,01,26,8.20
2021,05,05,01,27,8.20
2021,05,05,01,28,8.20
2021,05,05,01,29,8.20
2021,05,05,01,30,8.10
2021,05,05,01,31,8.10
2021,05,05,01,32,8.10
2021,05,05,01,33,8.00
2021,05,05,01,34,8.00
2021,05,05,01,35,8.00
2021,05,05,01,36,7.90
2021,05,05,01,37,7.90
2021,05,05,01,38,7.90
2021,05,05,01,39,7.90
2021,05,05,01,40,7.90
2021,05,05,01,41,7.80
2021,05,05,01,42,7.80
2021,05,05,01,43,7.80
2021,05,05,01,44,7.80
2021,05,05,01,45,7.80
2021,05,05,01,46,7.80
2021,05,05,01,47,7.80
2021,05,05,01,48,7.80
2021,05,05,01,49,7.80
2021,05,05,01,50,7.80
2021,05,05,01,51,7.80
2021,05,05,01,52,7.80
2021,05,05,01,53,7.80
2021,05,05,01,54,7.80
2021,05,05,01,55,7.70
2021,05,05,01,56,7.80
2021,05,05,01,57,7.80
2021,05,05,01,58,7.80
2021,05,05,01,59,7.80
2021,05,05,02,00,7.80
2021,05,05,02,01,7.80
2021,05,05,02,02,7.80
2021,05,05,02,03,7.80
2021,05,05,02,04,7.80
2021,05,05,02,05,7.80
2021,05,05,02,06,7.80
2021,05,05,02,07,7.70
2021,05,05,02,08,7.70
2021,05,05,02,09,7.60
2021,05,05,02,10,7.50
2021,05,05,02,11,7.50
2021,05,05,02,12,7.50
2021,05,05,02,13,7.40
2021,05,05,02,14,7.40
2021,05,05,02,15,7.40
2021,05,05,02,16,7.40
2021,05,05,02,17,7.40
2021,05,05,02,18,7.30
2021,05,05,02,19,7.30
2021,05,05,02,20,7.30
2021,05,05,02,21,7.30
2021,05,05,02,22,7.30
2021,05,05,02,23,7.30
2021,05,05,02,24,7.30
2021,05,05,02,25,7.30
2021,05,05,02,26,7.30
2021,05,05,02,27,7.30
2021,05,05,02,28,7.30
2021,05,05,02,29,7.20
2021,05,05,02,30,7.20
2021,05,05,02,31,7.20
2021,05,05,02,32,7.20
2021,05,05,02,33,7.10
2021,05,05,02,34,7.10
2021,05,05,02,35,7.10
2021,05,05,02,36,7.10
2021,05,05,02,37,7.10
2021,05,05,02,38,7.10
2021,05,05,02,39,7.10
2021,05,05,02,40,7.10
2021,05,05,02,41,7.10
2021,05,05,02,42,7.10
2021,05,05,02,43,7.00
2021,05,05,02,44,7.00
2021,05,05,02,45,7.00
2021,05,05,02,46,7.00
2021,05,05,02,47,7.00
2021,05,05,02,48,6.90
2021,05,05,02,49,6.90
2021,05,05,02,50,6.90
2021,05,05,02,51,6.90
2021,05,05,02,52,6.90
2021,05,05,02,53,6.90
2021,05,05,02,54,7.00
2021,05,05,02,55,7.00
2021,05,05,02,56,7.00
2021,05,05,02,57,7.00
2021,05,05,02,58,7.00
2021,05,05,02,59,7.00
2021,05,05,03,00,7.00
2021,05,05,03,01,7.00
2021,05,05,03,02,7.00
2021,05,05,03,03,7.00
2021,05,05,03,04,7.00
2021,05,05,03,05,7.00
2021,05,05,03,06,7.00
2021,05,05,03,07,6.90
2021,05,05,03,08,6.90
2021,05,05,03,09,6.90
2021,05,05,03,10,6.90
2021,05,05,03,11,6.90
2021,05,05,03,12,6.90
2021,05,05,03,13,6.90
2021,05,05,03,14,6.90
2021,05,05,03,15,6.90
2021,05,05,03,16,6.90
2021,05,05,03,17,6.90
2021,05,05,03,18,6.90
2021,05,05,03,19,6.90
2021,05,05,03,20,6.90
2021,05,05,03,21,7.00
2021,05,05,03,22,7.00
2021,05,05,03,23,7.00
2021,05,05,03,24,7.00
2021,05,05,03,25,7.00
2021,05,05,03,26,7.00
2021,05,05,03,27,7.00
2021,05,05,03,28,7.00
2021,05,05,03,29,7.00
2021,05,05,03,30,7.00
2021,05,05,03,31,7.00
2021,05,05,03,32,7.00
2021,05,05,03,33,7.00
2021,05,05,03,34,7.00
2021,05,05,03,35,7.00
2021,05,05,03,36,6.90
2021,05,05,03,37,6.90
2021,05,05,03,38,6.90
2021,05,05,03,39,6.90
2021,05,05,03,40,6.90
2021,05,05,03,41,6.90
2021,05,05,03,42,6.90
2021,05,05,03,43,6.90
2021,05,05,03,44,6.90
2021,05,05,03,45,6.90
2021,05,05,03,46,6.90
2021,05,05,03,47,6.90
2021,05,05,03,48,7.00
2021,05,05,03,49,7.00
2021,05,05,03,50,7.10
2021,05,05,03,51,7.10
2021,05,05,03,52,7.10
2021,05,05,03,53,7.20
2021,05,05,03,54,7.20
2021,05,05,03,55,7.30
2021,05,05,03,56,7.30
2021,05,05,03,57,7.40
2021,05,05,03,58,7.40
2021,05,05,03,59,7.50
2021,05,05,04,00,7.50
2021,05,05,04,01,7.60
2021,05,05,04,02,7.70
2021,05,05,04,03,7.80
2021,05,05,04,04,7.80
2021,05,05,04,08,7.80
2021,05,05,04,09,7.80
2021,05,05,04,10,7.80
2021,05,05,04,11,7.90
2021,05,05,04,12,7.90
2021,05,05,04,13,7.90
2021,05,05,04,14,7.90
2021,05,05,04,15,7.90
2021,05,05,04,16,7.90
2021,05,05,04,17,7.90
2021,05,05,04,18,7.90
2021,05,05,04,19,7.90
2021,05,05,04,20,8.00
2021,05,05,04,21,8.00
2021,05,05,04,22,8.00
2021,05,05,04,23,8.10
2021,05,05,04,24,8.10
2021,05,05,04,25,8.10
2021,05,05,04,26,8.10
2021,05,05,04,27,8.10
2021,05,05,04,28,8.10
2021,05,05,04,29,8.10
2021,05,05,04,30,8.10
2021,05,05,04,31,8.20
2021,05,05,04,32,8.20
2021,05,05,04,33,8.20
2021,05,05,04,34,8.20
2021,05,05,04,35,8.20
2021,05,05,04,36,8.20
2021,05,05,04,37,8.20
2021,05,05,04,38,8.20
2021,05,05,04,39,8.20
2021,05,05,04,40,8.20
2021,05,05,04,41,8.20
2021,05,05,04,42,8.20
2021,05,05,04,43,8.20
2021,05,05,04,44,8.20
2021,05,05,04,45,8.20
2021,05,05,04,46,8.20
2021,05,05,04,47,8.20
2021,05,05,04,48,8.20
2021,05,05,04,49,8.20
2021,05,05,04,50,8.10
2021,05,05,04,51,8.10
2021,05,05,04,52,8.10
2021,05,05,04,53,8.00
2021,05,05,04,54,8.00
2021,05,05,04,55,7.90
2021,05,05,04,56,7.90
2021,05,05,04,57,8.00
2021,05,05,04,58,8.00
2021,05,05,04,59,8.10
2021,05,05,05,00,8.10
2021,05,05,05,01,8.20
2021,05,05,05,02,8.20
2021,05,05,05,03,8.30
2021,05,05,05,04,8.30
2021,05,05,05,05,8.30
2021,05,05,05,06,8.30
2021,05,05,05,07,8.20
2021,05,05,05,08,8.20
2021,05,05,05,09,8.20
2021,05,05,05,10,8.20
2021,05,05,05,11,8.20
2021,05,05,05,12,8.20
2021,05,05,05,13,8.20
2021,05,05,05,14,8.20
2021,05,05,05,15,8.20
2021,05,05,05,16,8.20
2021,05,05,05,17,8.20
2021,05,05,05,18,8.20
2021,05,05,05,19,8.20
2021,05,05,05,20,8.20
2021,05,05,05,21,8.20
2021,05,05,05,22,8.20
2021,05,05,05,23,8.20
2021,05,05,05,24,8.20
2021,05,05,05,25,8.20
2021,05,05,05,26,8.20
2021,05,05,05,27,8.10
2021,05,05,05,28,8.10
2021,05,05,05,29,8.00
2021,05,05,05,30,8.00
2021,05,05,05,31,8.00
2021,05,05,05,32,8.00
2021,05,05,05,33,7.90
2021,05,05,05,34,7.90
2021,05,05,05,35,7.90
2021,05,05,05,36,7.90
2021,05,05,05,37,7.90
2021,05,05,05,38,7.90
2021,05,05,05,39,7.90
2021,05,05,05,40,7.80
2021,05,05,05,41,7.80
2021,05,05,05,42,7.80
2021,05,05,05,43,7.90
2021,05,05,05,44,7.90
2021,05,05,05,45,7.90
2021,05,05,05,46,8.00
2021,05,05,05,47,8.00
2021,05,05,05,48,8.10
2021,05,05,05,49,8.20
2021,05,05,05,50,8.20
2021,05,05,05,51,8.30
2021,05,05,05,52,8.30
2021,05,05,05,53,8.30
2021,05,05,05,54,8.40
2021,05,05,05,55,8.40
2021,05,05,05,56,8.50
2021,05,05,05,57,8.50
2021,05,05,05,58,8.60
2021,05,05,05,59,8.60
2021,05,05,06,00,8.60
2021,05,05,06,01,8.60
2021,05,05,06,02,8.60
2021,05,05,06,03,8.50
2021,05,05,06,04,8.50
2021,05,05,06,05,8.50
2021,05,05,06,06,8.60
2021,05,05,06,07,8.60
2021,05,05,06,08,8.60
2021,05,05,06,09,8.60
2021,05,05,06,10,8.60
2021,05,05,06,11,8.60
2021,05,05,06,12,8.70
2021,05,05,06,13,8.70
2021,05,05,06,14,8.70
2021,05,05,06,15,8.80
2021,05,05,06,16,8.90
2021,05,05,06,17,8.90
2021,05,05,06,18,9.00
2021,05,05,06,19,9.10
2021,05,05,06,20,9.10
2021,05,05,06,21,9.10
2021,05,05,06,22,9.10
2021,05,05,06,23,9.10
2021,05,05,06,24,9.00
2021,05,05,06,25,9.00
2021,05,05,06,26,9.00
2021,05,05,06,27,9.00
2021,05,05,06,28,9.00
2021,05,05,06,29,8.90
2021,05,05,06,30,8.90
2021,05,05,06,31,8.90
2021,05,05,06,32,8.90
2021,05,05,06,33,8.90
2021,05,05,06,34,8.90
2021,05,05,06,35,8.90
2021,05,05,06,36,8.90
2021,05,05,06,37,8.90
2021,05,05,06,38,8.90
2021,05,05,06,39,8.90
2021,05,05,06,40,8.90
2021,05,05,06,41,8.90
2021,05,05,06,42,8.90
2021,05,05,06,43,8.90
2021,05,05,06,44,8.90
2021,05,05,06,45,8.90
2021,05,05,06,46,8.90
2021,05,05,06,47,8.90
2021,05,05,06,48,8.90
2021,05,05,06,49,8.90
2021,05,05,06,50,8.90
2021,05,05,06,51,8.90
2021,05,05,06,52,8.80
2021,05,05,06,53,8.80
2021,05,05,06,54,8.80
2021,05,05,06,55,8.80
2021,05,05,06,56,8.90
2021,05,05,06,57,8.90
2021,05,05,06,58,8.90
2021,05,05,06,59,8.90
2021,05,05,07,00,9.00
2021,05,05,07,01,9.00
2021,05,05,07,02,9.10
2021,05,05,07,03,9.10
2021,05,05,07,04,9.10
2021,05,05,07,05,9.20
2021,05,05,07,06,9.30
2021,05,05,07,07,9.30
2021,05,05,07,08,9.40
2021,05,05,07,09,9.40
2021,05,05,07,10,9.40
2021,05,05,07,11,9.40
2021,05,05,07,12,9.40
2021,05,05,07,13,9.40
2021,05,05,07,14,9.50
2021,05,05,07,15,9.60
2021,05,05,07,16,9.60
2021,05,05,07,17,9.60
2021,05,05,07,18,9.70
2021,05,05,07,19,9.70
2021,05,05,07,20,9.70
2021,05,05,07,21,9.70
2021,05,05,07,22,9.70
2021,05,05,07,23,9.70
2021,05,05,07,24,9.70
2021,05,05,07,25,9.70
2021,05,05,07,26,9.70
2021,05,05,07,27,9.70
2021,05,05,07,28,9.70
2021,05,05,07,29,9.70
2021,05,05,07,30,9.70
2021,05,05,07,31,9.70
2021,05,05,07,32,9.70
2021,05,05,07,33,9.70
2021,05,05,07,34,9.80
2021,05,05,07,35,9.80
2021,05,05,07,36,9.80
2021,05,05,07,37,9.80
2021,05,05,07,38,9.80
2021,05,05,07,39,9.90
2021,05,05,07,40,9.90
2021,05,05,07,41,9.90
2021,05,05,07,42,10.00
2021,05,05,07,43,10.00
2021,05,05,07,44,10.00
2021,05,05,07,45,10.10
2021,05,05,07,46,10.10
2021,05,05,07,47,10.10
2021,05,05,07,48,10.20
2021,05,05,07,49,10.20
2021,05,05,07,50,10.20
2021,05,05,07,51,10.20
2021,05,05,07,52,10.30
2021,05,05,07,53,10.30
2021,05,05,07,54,10.30
2021,05,05,07,55,10.30
2021,05,05,07,56,10.30
2021,05,05,07,57,10.30
2021,05,05,07,58,10.40
2021,05,05,07,59,10.40
2021,05,05,08,00,10.30
2021,05,05,08,01,10.30
2021,05,05,08,02,10.40
2021,05,05,08,03,10.40
2021,05,05,08,04,10.40
2021,05,05,08,05,10.40
2021,05,05,08,06,10.40
2021,05,05,08,07,10.40
2021,05,05,08,08,10.40
2021,05,05,08,09,10.40
2021,05,05,08,10,10.40
2021,05,05,08,11,10.40
2021,05,05,08,12,10.40
2021,05,05,08,13,10.40
2021,05,05,08,14,10.50
2021,05,05,08,15,10.50
2021,05,05,08,16,10.60
2021,05,05,08,17,10.60
2021,05,05,08,18,10.60
2021,05,05,08,19,10.60
2021,05,05,08,20,10.60
2021,05,05,08,21,10.60
2021,05,05,08,22,10.60
2021,05,05,08,23,10.60
2021,05,05,08,24,10.60
2021,05,05,08,25,10.60
2021,05,05,08,26,10.60
2021,05,05,08,27,10.60
2021,05,05,08,28,10.70
2021,05,05,08,29,10.70
2021,05,05,08,30,10.80
2021,05,05,08,31,10.80
2021,05,05,08,32,10.80
2021,05,05,08,33,10.80
2021,05,05,08,34,10.90
2021,05,05,08,35,10.90
2021,05,05,08,36,10.90
2021,05,05,08,37,10.90
2021,05,05,08,38,11.00
2021,05,05,08,39,11.00
2021,05,05,08,40,11.10
2021,05,05,08,41,11.10
2021,05,05,08,42,11.20
2021,05,05,08,43,11.30
2021,05,05,08,44,11.30
2021,05,05,08,45,11.40
2021,05,05,08,46,11.50
2021,05,05,08,47,11.50
2021,05,05,08,48,11.60
2021,05,05,08,49,11.60
2021,05,05,08,50,11.50
2021,05,05,08,51,11.50
2021,05,05,08,52,11.50
2021,05,05,08,53,11.50
2021,05,05,08,54,11.40
2021,05,05,08,55,11.40
2021,05,05,08,56,11.40
2021,05,05,08,57,11.30
2021,05,05,08,58,11.30
2021,05,05,08,59,11.40
2021,05,05,09,00,11.40
2021,05,05,09,01,11.40
2021,05,05,09,02,11.40
2021,05,05,09,03,11.40
2021,05,05,09,04,11.50
2021,05,05,09,05,11.50
2021,05,05,09,06,11.60
2021,05,05,09,07,11.60
2021,05,05,09,08,11.60
2021,05,05,09,09,11.70
2021,05,05,09,10,11.70
2021,05,05,09,11,11.70
2021,05,05,09,12,11.70
2021,05,05,09,13,11.70
2021,05,05,09,14,11.70
2021,05,05,09,15,11.80
2021,05,05,09,16,11.80
2021,05,05,09,17,11.80
2021,05,05,09,18,11.90
2021,05,05,09,19,12.00
2021,05,05,09,20,12.10
2021,05,05,09,21,12.30
2021,05,05,09,22,12.40
2021,05,05,09,23,12.60
2021,05,05,09,24,12.80
2021,05,05,09,25,12.90
2021,05,05,09,26,13.00
2021,05,05,09,27,13.00
2021,05,05,09,28,13.10
2021,05,05,09,29,13.10
2021,05,05,09,30,13.00
2021,05,05,09,31,12.90
2021,05,05,09,32,12.90
2021,05,05,09,33,12.80
2021,05,05,09,34,12.80
2021,05,05,09,35,12.90
2021,05,05,09,36,13.00
2021,05,05,09,37,13.10
2021,05,05,09,38,13.20
2021,05,05,09,39,13.30
2021,05,05,09,40,13.30
2021,05,05,09,41,13.20
2021,05,05,09,42,13.20
2021,05,05,09,43,13.20
2021,05,05,09,44,13.10
2021,05,05,09,45,13.10
2021,05,05,09,46,13.10
2021,05,05,09,47,13.10
2021,05,05,09,48,13.10
2021,05,05,09,49,13.10
2021,05,05,09,50,13.10
2021,05,05,09,51,13.10
2021,05,05,09,52,13.10
2021,05,05,09,53,13.00
2021,05,05,09,54,13.00
2021,05,05,09,55,12.90
2021,05,05,09,56,12.90
2021,05,05,09,57,13.00
2021,05,05,09,58,13.00
2021,05,05,09,59,13.10
2021,05,05,10,00,13.20
2021,05,05,10,01,13.20
2021,05,05,10,02,13.20
2021,05,05,10,03,13.20
2021,05,05,10,04,13.20
2021,05,05,10,05,13.20
2021,05,05,10,06,13.20
2021,05,05,10,07,13.20
2021,05,05,10,08,13.20
2021,05,05,10,09,13.20
2021,05,05,10,10,13.20
2021,05,05,10,11,13.20
2021,05,05,10,12,13.10
2021,05,05,10,13,13.00
2021,05,05,10,14,13.00
2021,05,05,10,15,13.00
2021,05,05,10,16,13.00
2021,05,05,10,17,12.90
2021,05,05,10,18,12.90
2021,05,05,10,19,12.90
2021,05,05,10,20,12.90
2021,05,05,10,21,12.80
2021,05,05,10,22,12.80
2021,05,05,10,23,12.80
2021,05,05,10,24,12.90
2021,05,05,10,25,13.00
2021,05,05,10,26,13.10
2021,05,05,10,27,13.10
2021,05,05,10,28,13.20
2021,05,05,10,29,13.10
2021,05,05,10,30,13.10
2021,05,05,10,31,13.00
2021,05,05,10,32,12.90
2021,05,05,10,33,12.90
2021,05,05,10,34,12.90
2021,05,05,10,35,12.80
2021,05,05,10,36,12.90
2021,05,05,10,37,12.90
2021,05,05,10,38,12.90
2021,05,05,10,39,12.80
2021,05,05,10,40,12.80
2021,05,05,10,41,12.70
2021,05,05,10,42,12.70
2021,05,05,10,43,12.70
2021,05,05,10,44,12.60
2021,05,05,10,45,12.60
2021,05,05,10,46,12.50
2021,05,05,10,47,12.50
2021,05,05,10,48,12.50
2021,05,05,10,49,12.50
2021,05,05,10,50,12.50
2021,05,05,10,51,12.60
2021,05,05,10,52,12.60
2021,05,05,10,53,12.60
2021,05,05,10,54,12.60
2021,05,05,10,55,12.60
2021,05,05,10,56,12.60
2021,05,05,10,57,12.50
2021,05,05,10,58,12.50
2021,05,05,10,59,12.50
2021,05,05,11,00,12.40
2021,05,05,11,01,12.40
2021,05,05,11,02,12.40
2021,05,05,11,03,12.40
2021,05,05,11,04,12.40
2021,05,05,11,05,12.40
2021,05,05,11,06,12.40
2021,05,05,11,07,12.40
2021,05,05,11,08,12.40
2021,05,05,11,09,12.40
2021,05,05,11,10,12.50
2021,05,05,11,11,12.60
2021,05,05,11,12,12.60
2021,05,05,11,13,12.70
2021,05,05,11,14,12.70
2021,05,05,11,15,12.70
2021,05,05,11,16,12.60
2021,05,05,11,17,12.50
2021,05,05,11,18,12.50
2021,05,05,11,19,12.40
2021,05,05,11,20,12.40
2021,05,05,11,21,12.50
2021,05,05,11,22,12.50
2021,05,05,11,23,12.40
2021,05,05,11,24,12.40
2021,05,05,11,25,12.40
2021,05,05,11,26,12.40
2021,05,05,11,27,12.40
2021,05,05,11,28,12.40
2021,05,05,11,29,12.40
2021,05,05,11,30,12.40
2021,05,05,11,31,12.40
2021,05,05,11,32,12.40
2021,05,05,11,33,12.40
2021,05,05,11,34,12.40
2021,05,05,11,35,12.40
2021,05,05,11,36,12.30
2021,05,05,11,37,12.30
2021,05,05,11,38,12.30
2021,05,05,11,39,12.30
2021,05,05,11,40,12.20
2021,05,05,11,41,12.20
2021,05,05,11,42,12.10
2021,05,05,11,43,12.10
2021,05,05,11,44,12.10
2021,05,05,11,45,12.00
2021,05,05,11,46,12.00
2021,05,05,11,47,12.00
2021,05,05,11,48,12.10
2021,05,05,11,49,12.10
2021,05,05,11,50,12.10
2021,05,05,11,51,12.20
2021,05,05,11,52,12.20
2021,05,05,11,53,12.20
2021,05,05,11,54,12.20
2021,05,05,11,55,12.20
2021,05,05,11,56,12.20
2021,05,05,11,57,12.20
2021,05,05,11,58,12.20
2021,05,05,11,59,12.20
2021,05,05,12,00,12.20
2021,05,05,12,01,12.20
2021,05,05,12,02,12.20
2021,05,05,12,03,12.20
2021,05,05,12,04,12.20
2021,05,05,12,05,12.20
2021,05,05,12,06,12.10
2021,05,05,12,07,12.10
2021,05,05,12,08,12.10
2021,05,05,12,09,12.10
2021,05,05,12,10,12.10
2021,05,05,12,11,12.10
2021,05,05,12,12,12.00
2021,05,05,12,13,12.00
2021,05,05,12,14,12.00
2021,05,05,12,15,12.00
2021,05,05,12,16,12.10
2021,05,05,12,17,12.20
2021,05,05,12,18,12.20
2021,05,05,12,19,12.30
2021,05,05,12,20,12.40
2021,05,05,12,21,12.40
2021,05,05,12,22,12.50
2021,05,05,12,23,12.50
2021,05,05,12,24,12.50
2021,05,05,12,25,12.50
2021,05,05,12,26,12.50
2021,05,05,12,27,12.40
2021,05,05,12,28,12.40
2021,05,05,12,29,12.40
2021,05,05,12,30,12.30
2021,05,05,12,31,12.30
2021,05,05,12,32,12.30
2021,05,05,12,33,12.30
2021,05,05,12,34,12.30
2021,05,05,12,35,12.20
2021,05,05,12,36,12.20
2021,05,05,12,37,12.20
2021,05,05,12,38,12.20
2021,05,05,12,39,12.30
2021,05,05,12,40,12.30
2021,05,05,12,41,12.30
2021,05,05,12,42,12.40
2021,05,05,12,43,12.50
2021,05,05,12,44,12.60
2021,05,05,12,45,12.60
2021,05,05,12,46,12.70
2021,05,05,12,47,12.70
2021,05,05,12,48,12.80
2021,05,05,12,49,12.80
2021,05,05,12,50,12.80
2021,05,05,12,51,12.80
2021,05,05,12,52,12.80
2021,05,05,12,53,12.90
2021,05,05,12,54,12.90
2021,05,05,12,55,12.80
2021,05,05,12,56,12.80
2021,05,05,12,57,12.90
2021,05,05,12,58,12.90
2021,05,05,12,59,12.90
2021,05,05,13,00,12.90
2021,05,05,13,01,13.00
2021,05,05,13,02,12.90
2021,05,05,13,03,12.90
2021,05,05,13,04,12.90
2021,05,05,13,05,12.90
2021,05,05,13,06,13.00
2021,05,05,13,07,13.00
2021,05,05,13,08,13.00
2021,05,05,13,09,13.00
2021,05,05,13,10,13.00
2021,05,05,13,11,13.00
2021,05,05,13,12,13.10
2021,05,05,13,13,13.10
2021,05,05,13,14,13.10
2021,05,05,13,15,13.10
2021,05,05,13,16,13.20
2021,05,05,13,17,13.20
2021,05,05,13,18,13.30
2021,05,05,13,19,13.30
2021,05,05,13,20,13.30
2021,05,05,13,21,13.30
2021,05,05,13,22,13.30
2021,05,05,13,23,13.40
2021,05,05,13,24,13.40
2021,05,05,13,25,13.40
2021,05,05,13,26,13.50
2021,05,05,13,27,13.50
2021,05,05,13,28,13.60
2021,05,05,13,29,13.70
2021,05,05,13,30,13.90
2021,05,05,13,31,14.00
2021,05,05,13,32,14.10
2021,05,05,13,33,14.20
2021,05,05,13,34,14.30
2021,05,05,13,35,14.30
2021,05,05,13,36,14.30
2021,05,05,13,37,14.30
2021,05,05,13,38,14.30
2021,05,05,13,39,14.40
2021,05,05,13,40,14.50
2021,05,05,13,41,14.60
2021,05,05,13,42,14.70
2021,05,05,13,43,14.70
2021,05,05,13,44,14.70
2021,05,05,13,45,14.70
2021,05,05,13,46,14.60
2021,05,05,13,47,14.50
2021,05,05,13,48,14.50
2021,05,05,13,49,14.40
2021,05,05,13,50,14.40
2021,05,05,13,51,14.40
2021,05,05,13,52,14.50
2021,05,05,13,53,14.60
2021,05,05,13,54,14.60
2021,05,05,13,55,14.70
2021,05,05,13,56,14.70
2021,05,05,13,57,14.80
2021,05,05,13,58,14.80
2021,05,05,13,59,14.80
2021,05,05,14,00,14.80
2021,05,05,14,01,14.80
2021,05,05,14,02,14.90
2021,05,05,14,03,14.90
2021,05,05,14,04,15.00
2021,05,05,14,05,15.10
2021,05,05,14,06,15.10
2021,05,05,14,07,15.20
2021,05,05,14,08,15.30
2021,05,05,14,09,15.30
2021,05,05,14,10,15.30
2021,05,05,14,11,15.30
2021,05,05,14,12,15.30
2021,05,05,14,13,15.30
2021,05,05,14,14,15.30
2021,05,05,14,15,15.30
2021,05,05,14,16,15.30
2021,05,05,14,17,15.30
2021,05,05,14,18,15.30
2021,05,05,14,19,15.30
2021,05,05,14,20,15.40
2021,05,05,14,21,15.40
2021,05,05,14,22,15.40
2021,05,05,14,23,15.40
2021,05,05,14,24,15.50
2021,05,05,14,25,15.60
2021,05,05,14,26,15.60
2021,05,05,14,27,15.70
2021,05,05,14,28,15.70
2021,05,05,14,29,15.80
2021,05,05,14,30,15.80
2021,05,05,14,31,15.80
2021,05,05,14,32,15.80
2021,05,05,14,33,15.70
2021,05,05,14,34,15.70
2021,05,05,14,35,15.70
2021,05,05,14,36,15.70
2021,05,05,14,37,15.70
2021,05,05,14,38,15.70
2021,05,05,14,39,15.70
2021,05,05,14,40,15.80
2021,05,05,14,41,15.80
2021,05,05,14,42,15.90
2021,05,05,14,43,15.90
2021,05,05,14,44,16.00
2021,05,05,14,45,16.10
2021,05,05,14,46,16.10
2021,05,05,14,47,16.10
2021,05,05,14,48,16.20
2021,05,05,14,49,16.30
2021,05,05,14,50,16.40
2021,05,05,14,51,16.40
2021,05,05,14,52,16.40
2021,05,05,14,53,16.30
2021,05,05,14,54,16.30
2021,05,05,14,55,16.30
2021,05,05,14,56,16.30
2021,05,05,14,57,16.30
2021,05,05,14,58,16.40
2021,05,05,14,59,16.40
2021,05,05,15,00,16.50
2021,05,05,15,01,16.50
2021,05,05,15,02,16.60
2021,05,05,15,03,16.60
2021,05,05,15,04,16.70
2021,05,05,15,05,16.60
2021,05,05,15,06,16.60
2021,05,05,15,07,16.60
2021,05,05,15,08,16.60
2021,05,05,15,09,16.60
2021,05,05,15,10,16.60
2021,05,05,15,11,16.50
2021,05,05,15,12,16.40
2021,05,05,15,13,16.40
2021,05,05,15,14,16.30
2021,05,05,15,15,16.40
2021,05,05,15,16,16.40
2021,05,05,15,17,16.30
2021,05,05,15,18,16.30
2021,05,05,15,19,16.20
2021,05,05,15,20,16.20
2021,05,05,15,21,16.20
2021,05,05,15,22,16.20
2021,05,05,15,23,16.20
2021,05,05,15,24,16.30
2021,05,05,15,25,16.30
2021,05,05,15,26,16.30
2021,05,05,15,27,16.30
2021,05,05,15,28,16.40
2021,05,05,15,29,16.30
2021,05,05,15,30,16.30
2021,05,05,15,31,16.20
2021,05,05,15,32,16.20
2021,05,05,15,33,16.10
2021,05,05,15,34,16.10
2021,05,05,15,35,16.00
2021,05,05,15,36,16.00
2021,05,05,15,37,16.00
2021,05,05,15,38,15.90
2021,05,05,15,39,15.90
2021,05,05,15,40,15.90
2021,05,05,15,41,15.90
2021,05,05,15,42,15.90
2021,05,05,15,43,15.90
2021,05,05,15,44,16.00
2021,05,05,15,45,16.00
2021,05,05,15,46,16.00
2021,05,05,15,47,16.10
2021,05,05,15,48,16.10
2021,05,05,15,49,16.10
2021,05,05,15,50,16.10
2021,05,05,15,51,16.10
2021,05,05,15,52,16.20
2021,05,05,15,53,16.20
2021,05,05,15,54,16.20
2021,05,05,15,55,16.30
2021,05,05,15,56,16.30
2021,05,05,15,57,16.30
2021,05,05,15,58,16.30
2021,05,05,15,59,16.30
2021,05,05,16,00,16.30
2021,05,05,16,01,16.30
2021,05,05,16,02,16.30
2021,05,05,16,03,16.30
2021,05,05,16,04,16.40
2021,05,05,16,05,16.40
2021,05,05,16,06,16.40
2021,05,05,16,07,16.40
2021,05,05,16,08,16.40
2021,05,05,16,09,16.40
2021,05,05,16,10,16.40
2021,05,05,16,11,16.40
2021,05,05,16,12,16.50
2021,05,05,16,13,16.40
2021,05,05,16,14,16.40
2021,05,05,16,15,16.40
2021,05,05,16,16,16.40
2021,05,05,16,17,16.50
2021,05,05,16,18,16.50
2021,05,05,16,19,16.60
2021,05,05,16,20,16.60
2021,05,05,16,21,16.60
2021,05,05,16,22,16.60
2021,05,05,16,23,16.60
2021,05,05,16,24,16.70
2021,05,05,16,25,16.70
2021,05,05,16,26,16.80
2021,05,05,16,27,16.80
2021,05,05,16,28,16.80
2021,05,05,16,29,16.80
2021,05,05,16,30,16.80
2021,05,05,16,31,16.90
2021,05,05,16,32,16.90
2021,05,05,16,33,16.90
2021,05,05,16,34,16.90
2021,05,05,16,35,16.90
2021,05,05,16,36,16.90
2021,05,05,16,37,17.00
2021,05,05,16,38,17.00
2021,05,05,16,39,17.10
2021,05,05,16,40,17.10
2021,05,05,16,41,17.10
2021,05,05,16,42,17.10
2021,05,05,16,43,17.10
2021,05,05,16,44,17.10
2021,05,05,16,45,17.10
2021,05,05,16,46,17.00
2021,05,05,16,47,17.00
2021,05,05,16,48,16.90
2021,05,05,16,49,17.00
2021,05,05,16,50,17.00
2021,05,05,16,51,17.10
2021,05,05,16,52,17.10
2021,05,05,16,53,17.10
2021,05,05,16,54,17.10
2021,05,05,16,55,17.10
2021,05,05,16,56,17.10
2021,05,05,16,57,17.10
2021,05,05,16,58,17.20
2021,05,05,16,59,17.20
2021,05,05,17,00,17.20
2021,05,05,17,01,17.30
2021,05,05,17,02,17.30
2021,05,05,17,03,17.30
2021,05,05,17,04,17.30
2021,05,05,17,05,17.30
2021,05,05,17,06,17.20
2021,05,05,17,07,17.20
2021,05,05,17,08,17.10
2021,05,05,17,09,17.20
2021,05,05,17,10,17.20
2021,05,05,17,11,17.10
2021,05,05,17,12,17.10
2021,05,05,17,13,17.10
2021,05,05,17,14,17.10
2021,05,05,17,15,17.10
2021,05,05,17,16,17.10
2021,05,05,17,17,17.20
2021,05,05,17,18,17.20
2021,05,05,17,19,17.20
2021,05,05,17,20,17.20
2021,05,05,17,21,17.30
2021,05,05,17,22,17.30
2021,05,05,17,23,17.30
2021,05,05,17,24,17.30
2021,05,05,17,25,17.20
2021,05,05,17,26,17.20
2021,05,05,17,27,17.10
2021,05,05,17,28,17.10
2021,05,05,17,29,17.00
2021,05,05,17,30,17.00
2021,05,05,17,31,16.90
2021,05,05,17,32,16.90
2021,05,05,17,33,16.90
2021,05,05,17,34,16.90
2021,05,05,17,35,16.90
2021,05,05,17,36,17.00
2021,05,05,17,37,17.00
2021,05,05,17,38,17.10
2021,05,05,17,39,17.10
2021,05,05,17,40,17.10
2021,05,05,17,41,17.20
2021,05,05,17,42,17.20